| time (UTC) | temp F | wind direction | speed MPH | gust MPH | rain 1hr in | rain 24hr in | rain mn in | humidity % | barometer mb |
| 20260904221909 | 90 | 158 | 4.0 | 5.0 | 0.00 | 0.00 | 0.00 | 66 | 1011.6 |
| 20260904221403 | 90 | 114 | 1.0 | 5.0 | 0.00 | 0.00 | 0.00 | 66 | 1011.5 |
| 20260904220859 | 90 | 107 | 2.0 | 2.0 | 0.00 | 0.00 | 0.00 | 66 | 1011.7 |
| 20260904220358 | 90 | 152 | 5.0 | 5.0 | 0.00 | 0.00 | 0.00 | 66 | 1011.5 |
| 20260904215854 | 92 | 201 | 3.0 | 5.0 | 0.00 | 0.00 | 0.00 | 64 | 1011.8 |
| 20260904215349 | 93 | 159 | 3.0 | 9.0 | 0.00 | 0.00 | 0.00 | 63 | 1012.0 |
| 20260904214845 | 92 | 173 | 4.0 | 9.0 | 0.00 | 0.00 | 0.00 | 64 | 1012.1 |
| 20260904214340 | 92 | 129 | 0.0 | 7.0 | 0.00 | 0.00 | 0.00 | 64 | 1012.0 |
| 20260904213839 | 93 | 101 | 3.0 | 5.0 | 0.00 | 0.00 | 0.00 | 63 | 1012.1 |
| 20260904213333 | 93 | 165 | 3.0 | 5.0 | 0.00 | 0.00 | 0.00 | 63 | 1012.1 |
| 20260904212829 | 93 | 142 | 7.0 | 7.0 | 0.00 | 0.00 | 0.00 | 63 | 1012.1 |
| 20260904212324 | 92 | 102 | 2.0 | 11.0 | 0.00 | 0.00 | 0.00 | 66 | 1012.1 |
| 20260904211819 | 90 | 69 | 3.0 | 4.0 | 0.00 | 0.00 | 0.00 | 69 | 1012.0 |
| 20260904211314 | 90 | 97 | 0.0 | 7.0 | 0.00 | 0.00 | 0.00 | 69 | 1012.2 |
| 20260904210808 | 90 | 90 | 3.0 | 6.0 | 0.00 | 0.00 | 0.00 | 67 | 1012.5 |
| 20260904210303 | 90 | 119 | 5.0 | 7.0 | 0.00 | 0.00 | 0.00 | 66 | 1012.5 |
| 20260904205759 | 91 | 59 | 7.0 | 9.0 | 0.00 | 0.00 | 0.00 | 65 | 1012.7 |
| 20260904205254 | 93 | 90 | 2.0 | 5.0 | 0.00 | 0.00 | 0.00 | 64 | 1012.6 |
| 20260904204751 | 91 | 99 | 0.0 | 8.0 | 0.00 | 0.00 | 0.00 | 68 | 1012.4 |
| 20260904204247 | 91 | 23 | 3.0 | 9.0 | 0.00 | 0.00 | 0.00 | 70 | 1012.3 |
| 20260904203743 | 91 | 79 | 8.0 | 8.0 | 0.00 | 0.00 | 0.00 | 71 | 1012.9 |
| 20260904203239 | 91 | 113 | 5.0 | 10.0 | 0.00 | 0.00 | 0.00 | 71 | 1012.9 |
| 20260904202735 | 90 | 104 | 3.0 | 10.0 | 0.00 | 0.00 | 0.00 | 72 | 1012.5 |
| 20260904202231 | 91 | 137 | 0.0 | 5.0 | 0.00 | 0.00 | 0.00 | 71 | 1012.9 |
| 20260904201726 | 90 | 98 | 5.0 | 11.0 | 0.00 | 0.00 | 0.00 | 73 | 1012.7 |
| 20260904201225 | 90 | 140 | 4.0 | 8.0 | 0.00 | 0.00 | 0.00 | 73 | 1012.7 |
| 20260904200720 | 90 | 131 | 0.0 | 9.0 | 0.00 | 0.00 | 0.00 | 74 | 1012.9 |
| 20260904200215 | 90 | 100 | 5.0 | 8.0 | 0.00 | 0.00 | 0.00 | 74 | 1012.9 |
| 20260904195714 | 90 | 127 | 0.0 | 6.0 | 0.00 | 0.00 | 0.00 | 75 | 1012.9 |
| 20260904195213 | 89 | 98 | 5.0 | 6.0 | 0.00 | 0.00 | 0.00 | 75 | 1012.9 |
| 20260904194708 | 89 | 157 | 1.0 | 9.0 | 0.00 | 0.00 | 0.00 | 75 | 1013.0 |
| 20260904194207 | 89 | 95 | 2.0 | 6.0 | 0.00 | 0.00 | 0.00 | 76 | 1013.1 |
| 20260904193703 | 89 | 116 | 3.0 | 8.0 | 0.00 | 0.00 | 0.00 | 76 | 1012.9 |
| 20260904193159 | 88 | 128 | 4.0 | 7.0 | 0.00 | 0.00 | 0.00 | 76 | 1013.2 |
| 20260904192659 | 88 | 104 | 3.0 | 12.0 | 0.00 | 0.00 | 0.00 | 75 | 1013.1 |
| 20260904192149 | 89 | 105 | 0.0 | 5.0 | 0.00 | 0.00 | 0.00 | 72 | 1013.2 |
| 20260904191646 | 88 | 90 | 3.0 | 7.0 | 0.00 | 0.00 | 0.00 | 71 | 1013.2 |
| 20260904191142 | 89 | 114 | 3.0 | 6.0 | 0.00 | 0.00 | 0.00 | 71 | 1013.4 |
| 20260904190637 | 89 | 83 | 7.0 | 7.0 | 0.00 | 0.00 | 0.00 | 69 | 1013.5 |
| 20260904190132 | 88 | 103 | 2.0 | 8.0 | 0.00 | 0.00 | 0.00 | 71 | 1013.6 |
| 20260904185630 | 89 | 139 | 6.0 | 8.0 | 0.00 | 0.00 | 0.00 | 72 | 1013.5 |
| 20260904185124 | 89 | 143 | 2.0 | 11.0 | 0.00 | 0.00 | 0.00 | 73 | 1013.7 |
| 20260904184623 | 89 | 96 | 2.0 | 7.0 | 0.00 | 0.00 | 0.00 | 73 | 1013.4 |
| 20260904184119 | 91 | 90 | 3.0 | 8.0 | 0.00 | 0.00 | 0.00 | 71 | 1013.7 |
| 20260904183614 | 92 | 195 | 0.0 | 6.0 | 0.00 | 0.00 | 0.00 | 60 | 1013.9 |
| 20260904183109 | 93 | 151 | 0.0 | 4.0 | 0.00 | 0.00 | 0.00 | 60 | 1013.5 |
| 20260904182604 | 93 | 125 | 3.0 | 7.0 | 0.00 | 0.00 | 0.00 | 61 | 1013.7 |
| 20260904182058 | 93 | 169 | 5.0 | 8.0 | 0.00 | 0.00 | 0.00 | 61 | 1013.9 |
| 20260904181554 | 93 | 147 | 6.0 | 10.0 | 0.00 | 0.00 | 0.00 | 61 | 1013.9 |
| 20260904181048 | 93 | 204 | 5.0 | 5.0 | 0.00 | 0.00 | 0.00 | 62 | 1013.9 |
| 20260904180543 | 93 | 180 | 1.0 | 11.0 | 0.00 | 0.00 | 0.00 | 61 | 1013.9 |
| 20260904180038 | 93 | 152 | 3.0 | 7.0 | 0.00 | 0.00 | 0.00 | 61 | 1013.8 |
| 20260904175532 | 92 | 77 | 2.0 | 6.0 | 0.00 | 0.00 | 0.00 | 66 | 1013.7 |
| 20260904175031 | 91 | 84 | 2.0 | 7.0 | 0.00 | 0.00 | 0.00 | 69 | 1013.9 |
| 20260904174526 | 92 | 138 | 3.0 | 4.0 | 0.00 | 0.00 | 0.00 | 66 | 1014.0 |
| 20260904174023 | 93 | 66 | 3.0 | 5.0 | 0.00 | 0.00 | 0.00 | 68 | 1013.8 |
| 20260904173522 | 93 | 210 | 3.0 | 8.0 | 0.00 | 0.00 | 0.00 | 67 | 1014.0 |
| 20260904173018 | 93 | 90 | 3.0 | 4.0 | 0.00 | 0.00 | 0.00 | 68 | 1014.2 |
| 20260904172514 | 92 | 223 | 4.0 | 7.0 | 0.00 | 0.00 | 0.00 | 69 | 1014.2 |
| 20260904172013 | 92 | 157 | 2.0 | 2.0 | 0.00 | 0.00 | 0.00 | 70 | 1014.3 |
| 20260904171509 | 92 | 139 | 3.0 | 4.0 | 0.00 | 0.00 | 0.00 | 71 | 1014.3 |
| 20260904171004 | 91 | 158 | 5.0 | 6.0 | 0.00 | 0.00 | 0.00 | 72 | 1014.7 |
| 20260904170459 | 91 | 180 | 2.0 | 4.0 | 0.00 | 0.00 | 0.00 | 71 | 1014.7 |
| 20260904165955 | 91 | 133 | 3.0 | 6.0 | 0.00 | 0.00 | 0.00 | 72 | 1014.7 |
| 20260904165454 | 92 | 176 | 0.0 | 11.0 | 0.00 | 0.00 | 0.00 | 70 | 1014.7 |
| 20260904164953 | 92 | 90 | 1.0 | 6.0 | 0.00 | 0.00 | 0.00 | 73 | 1014.7 |
| 20260904164448 | 91 | 94 | 2.0 | 5.0 | 0.00 | 0.00 | 0.00 | 74 | 1014.6 |
| 20260904163944 | 91 | 75 | 5.0 | 5.0 | 0.00 | 0.00 | 0.00 | 73 | 1014.7 |
| 20260904163444 | 91 | 225 | 2.0 | 4.0 | 0.00 | 0.00 | 0.00 | 77 | 1014.6 |
| 20260904162938 | 89 | 270 | 0.0 | 4.0 | 0.00 | 0.00 | 0.00 | 78 | 1014.8 |
| 20260904162433 | 88 | 228 | 4.0 | 8.0 | 0.00 | 0.00 | 0.00 | 80 | 1014.7 |
| 20260904161929 | 87 | 148 | 2.0 | 3.0 | 0.00 | 0.00 | 0.00 | 81 | 1014.5 |
| 20260904161424 | 87 | 218 | 3.0 | 4.0 | 0.00 | 0.00 | 0.00 | 82 | 1014.5 |
| 20260904160920 | 87 | 236 | 3.0 | 5.0 | 0.00 | 0.00 | 0.00 | 82 | 1014.5 |
| 20260904160414 | 87 | 228 | 0.0 | 3.0 | 0.00 | 0.00 | 0.00 | 83 | 1014.6 |
| 20260904155909 | 86 | 232 | 0.0 | 2.0 | 0.00 | 0.00 | 0.00 | 86 | 1014.6 |
| 20260904155404 | 86 | 232 | 3.0 | 5.0 | 0.00 | 0.00 | 0.00 | 84 | 1014.4 |
| 20260904154903 | 86 | 270 | 4.0 | 4.0 | 0.00 | 0.00 | 0.00 | 84 | 1014.6 |
| 20260904154357 | 86 | 230 | 0.0 | 3.0 | 0.00 | 0.00 | 0.00 | 83 | 1014.5 |
| 20260904153853 | 86 | 237 | 3.0 | 5.0 | 0.00 | 0.00 | 0.00 | 85 | 1014.6 |
| 20260904153348 | 86 | 231 | 4.0 | 7.0 | 0.00 | 0.00 | 0.00 | 86 | 1014.5 |
| 20260904152845 | 86 | 236 | 3.0 | 3.0 | 0.00 | 0.00 | 0.00 | 86 | 1014.7 |
| 20260904152344 | 86 | 240 | 4.0 | 8.0 | 0.00 | 0.00 | 0.00 | 85 | 1014.6 |
| 20260904151839 | 86 | 240 | 0.0 | 2.0 | 0.00 | 0.00 | 0.00 | 88 | 1014.7 |
| 20260904151338 | 85 | 161 | 2.0 | 3.0 | 0.00 | 0.00 | 0.00 | 89 | 1014.5 |
| 20260904150834 | 85 | 159 | 0.0 | 5.0 | 0.00 | 0.00 | 0.00 | 88 | 1014.4 |
| 20260904150329 | 86 | 209 | 3.0 | 7.0 | 0.00 | 0.00 | 0.00 | 91 | 1014.3 |
| 20260904145827 | 86 | 156 | 0.0 | 4.0 | 0.00 | 0.00 | 0.00 | 90 | 1014.2 |
| 20260904145324 | 85 | 77 | 0.0 | 5.0 | 0.00 | 0.00 | 0.00 | 92 | 1014.3 |
| 20260904144819 | 86 | 237 | 3.0 | 4.0 | 0.00 | 0.00 | 0.00 | 92 | 1014.6 |
| 20260904144314 | 85 | 216 | 0.0 | 3.0 | 0.00 | 0.00 | 0.00 | 93 | 1014.3 |
| 20260904143809 | 83 | 173 | 0.0 | 3.0 | 0.00 | 0.00 | 0.00 | 97 | 1014.4 |
| 20260904143306 | 82 | 212 | 0.0 | 3.0 | 0.00 | 0.00 | 0.00 | 97 | 1014.3 |
| 20260904142802 | 82 | 114 | 0.0 | 4.0 | 0.00 | 0.00 | 0.00 | 98 | 1014.4 |
| 20260904142258 | 82 | 102 | 2.0 | 3.0 | 0.00 | 0.00 | 0.00 | 99 | 1014.2 |
| 20260904141752 | 82 | 90 | 0.0 | 3.0 | 0.00 | 0.00 | 0.00 | 99 | 1014.4 |
| 20260904141248 | 81 | 79 | 2.0 | 3.0 | 0.00 | 0.00 | 0.00 | 99 | 1014.2 |
| 20260904140743 | 81 | 157 | 2.0 | 2.0 | 0.00 | 0.00 | 0.00 | 99 | 1014.3 |
| 20260904140239 | 81 | 53 | 0.0 | 2.0 | 0.00 | 0.00 | 0.00 | 99 | 1014.0 |
| 20260904135737 | 80 | 90 | 0.0 | 2.0 | 0.00 | 0.00 | 0.00 | 99 | 1014.0 |
| 20260904135232 | 80 | 38 | 2.0 | 2.0 | 0.00 | 0.00 | 0.00 | 99 | 1013.9 |
| 20260904134729 | 80 | 77 | 1.0 | 3.0 | 0.00 | 0.00 | 0.00 | 99 | 1014.0 |
| 20260904134228 | 80 | 83 | 0.0 | 1.0 | 0.00 | 0.00 | 0.00 | 99 | 1013.8 |
| 20260904133723 | 80 | 111 | 0.0 | 1.0 | 0.00 | 0.00 | 0.00 | 99 | 1013.7 |
| 20260904133220 | 80 | 106 | 0.0 | 3.0 | 0.00 | 0.00 | 0.00 | 99 | 1013.7 |
| 20260904132718 | 79 | 66 | 0.0 | 2.0 | 0.00 | 0.00 | 0.00 | 99 | 1013.6 |
| 20260904132214 | 79 | 81 | 1.0 | 3.0 | 0.00 | 0.00 | 0.00 | 99 | 1013.6 |
| 20260904131713 | 79 | 90 | 0.0 | 2.0 | 0.00 | 0.00 | 0.00 | 99 | 1014.0 |
| 20260904131208 | 79 | 90 | 0.0 | 3.0 | 0.00 | 0.00 | 0.00 | 99 | 1013.6 |
| 20260904130703 | 79 | 96 | 2.0 | 3.0 | 0.00 | 0.00 | 0.00 | 99 | 1013.5 |
| 20260904130202 | 79 | 90 | 0.0 | 0.0 | 0.00 | 0.00 | 0.00 | 99 | 1013.6 |
| 20260904125659 | 79 | 82 | 0.0 | 2.0 | 0.00 | 0.00 | 0.00 | 99 | 1013.5 |
| 20260904125154 | 79 | 63 | 0.0 | 2.0 | 0.00 | 0.00 | 0.00 | 99 | 1013.5 |
| 20260904124649 | 79 | 63 | 2.0 | 3.0 | 0.00 | 0.00 | 0.00 | 99 | 1013.3 |
| 20260904124145 | 79 | 108 | 2.0 | 3.0 | 0.00 | 0.00 | 0.00 | 99 | 1013.6 |
| 20260904123645 | 79 | 90 | 0.0 | 2.0 | 0.00 | 0.00 | 0.00 | 99 | 1013.3 |
| 20260904123141 | 79 | 90 | 0.0 | 1.0 | 0.00 | 0.00 | 0.00 | 99 | 1013.2 |
| 20260904122641 | 79 | 84 | 2.0 | 2.0 | 0.00 | 0.00 | 0.00 | 99 | 1013.2 |
| 20260904122136 | 78 | 90 | 1.0 | 3.0 | 0.00 | 0.00 | 0.00 | 99 | 1013.2 |
| 20260904121631 | 78 | 29 | 1.0 | 3.0 | 0.00 | 0.00 | 0.00 | 99 | 1013.2 |
| 20260904121127 | 79 | 16 | 0.0 | 3.0 | 0.00 | 0.00 | 0.00 | 99 | 1013.1 |
| 20260904120623 | 78 | 45 | 2.0 | 2.0 | 0.00 | 0.00 | 0.00 | 99 | 1013.0 |
| 20260904120118 | 78 | 40 | 0.0 | 2.0 | 0.00 | 0.00 | 0.00 | 99 | 1013.1 |
| 20260904115613 | 78 | 8 | 0.0 | 0.0 | 0.00 | 0.00 | 0.00 | 99 | 1012.9 |
| 20260904115108 | 78 | 74 | 0.0 | 0.0 | 0.00 | 0.00 | 0.00 | 99 | 1012.7 |
| 20260904114608 | 78 | 90 | 0.0 | 0.0 | 0.00 | 0.00 | 0.00 | 99 | 1012.7 |
| 20260904114103 | 78 | 157 | 0.0 | 0.0 | 0.00 | 0.00 | 0.00 | 99 | 1012.6 |
| 20260904113557 | 78 | 157 | 0.0 | 0.0 | 0.00 | 0.00 | 0.00 | 99 | 1012.6 |
| 20260904113056 | 79 | 157 | 0.0 | 0.0 | 0.00 | 0.00 | 0.00 | 99 | 1012.7 |
| 20260904112552 | 79 | 90 | 0.0 | 0.0 | 0.00 | 0.00 | 0.00 | 99 | 1012.6 |
| 20260904112048 | 79 | 106 | 0.0 | 0.0 | 0.00 | 0.00 | 0.00 | 99 | 1012.5 |
| 20260904111543 | 79 | 106 | 0.0 | 1.0 | 0.00 | 0.00 | 0.00 | 99 | 1012.6 |
| 20260904111038 | 79 | 81 | 0.0 | 3.0 | 0.00 | 0.00 | 0.00 | 99 | 1012.6 |
| 20260904110532 | 79 | 106 | 0.0 | 2.0 | 0.00 | 0.00 | 0.00 | 99 | 1012.5 |
| 20260904110028 | 79 | 90 | 0.0 | 0.0 | 0.00 | 0.00 | 0.00 | 99 | 1012.6 |
| 20260904105522 | 79 | 60 | 0.0 | 0.0 | 0.00 | 0.00 | 0.00 | 99 | 1012.5 |
| 20260904105017 | 79 | 150 | 0.0 | 0.0 | 0.00 | 0.00 | 0.00 | 99 | 1012.5 |
| 20260904104513 | 79 | 60 | 0.0 | 0.0 | 0.00 | 0.00 | 0.00 | 99 | 1012.3 |
| 20260904104008 | 79 | 60 | 0.0 | 0.0 | 0.00 | 0.00 | 0.00 | 99 | 1012.4 |
| 20260904103504 | 79 | 60 | 0.0 | 1.0 | 0.00 | 0.00 | 0.00 | 99 | 1012.3 |
| 20260904103000 | 79 | 82 | 0.0 | 0.0 | 0.00 | 0.00 | 0.00 | 99 | 1012.3 |
| 20260904102455 | 79 | 82 | 0.0 | 1.0 | 0.00 | 0.00 | 0.00 | 99 | 1012.5 |
| 20260904101950 | 79 | 49 | 0.0 | 2.0 | 0.00 | 0.00 | 0.00 | 99 | 1012.4 |
| 20260904101447 | 79 | 69 | 0.0 | 0.0 | 0.00 | 0.00 | 0.00 | 99 | 1012.4 |
| 20260904100943 | 79 | 240 | 0.0 | 0.0 | 0.00 | 0.00 | 0.00 | 99 | 1012.5 |
| 20260904100438 | 79 | 209 | 0.0 | 2.0 | 0.00 | 0.00 | 0.00 | 99 | 1012.7 |
| 20260904095932 | 79 | 212 | 0.0 | 0.0 | 0.00 | 0.00 | 0.00 | 99 | 1012.3 |
| 20260904095427 | 79 | 228 | 2.0 | 2.0 | 0.00 | 0.00 | 0.00 | 99 | 1012.5 |
| 20260904094917 | 79 | 145 | 0.0 | 1.0 | 0.00 | 0.00 | 0.00 | 99 | 1012.6 |
| 20260904094412 | 79 | 135 | 0.0 | 0.0 | 0.00 | 0.00 | 0.00 | 99 | 1012.6 |
| 20260904093908 | 80 | 135 | 0.0 | 0.0 | 0.00 | 0.00 | 0.00 | 99 | 1012.7 |
| 20260904093408 | 80 | 162 | 0.0 | 0.0 | 0.00 | 0.00 | 0.00 | 99 | 1012.5 |
| 20260904092903 | 80 | 162 | 0.0 | 0.0 | 0.00 | 0.00 | 0.00 | 99 | 1012.3 |
| 20260904092400 | 80 | 270 | 0.0 | 0.0 | 0.00 | 0.00 | 0.00 | 99 | 1012.2 |
| 20260904091855 | 80 | 232 | 0.0 | 3.0 | 0.00 | 0.00 | 0.00 | 99 | 1012.3 |
| 20260904091351 | 80 | 192 | 1.0 | 5.0 | 0.00 | 0.00 | 0.00 | 98 | 1012.3 |
| 20260904090845 | 80 | 251 | 0.0 | 3.0 | 0.00 | 0.00 | 0.00 | 98 | 1012.6 |
| 20260904090342 | 80 | 194 | 0.0 | 4.0 | 0.00 | 0.00 | 0.00 | 98 | 1012.2 |
| 20260904085836 | 80 | 132 | 0.0 | 3.0 | 0.00 | 0.00 | 0.00 | 98 | 1012.2 |
| 20260904085331 | 80 | 188 | 0.0 | 3.0 | 0.00 | 0.00 | 0.00 | 98 | 1012.3 |
| 20260904084826 | 80 | 190 | 2.0 | 3.0 | 0.00 | 0.00 | 0.00 | 98 | 1012.2 |
| 20260904084322 | 80 | 63 | 0.0 | 2.0 | 0.00 | 0.00 | 0.00 | 97 | 1012.2 |
| 20260904083818 | 80 | 117 | 2.0 | 3.0 | 0.00 | 0.00 | 0.00 | 97 | 1012.1 |
| 20260904083314 | 80 | 79 | 3.0 | 4.0 | 0.00 | 0.00 | 0.00 | 97 | 1011.9 |
| 20260904082809 | 80 | 154 | 0.0 | 3.0 | 0.00 | 0.00 | 0.00 | 97 | 1012.2 |
| 20260904082306 | 80 | 229 | 0.0 | 2.0 | 0.00 | 0.00 | 0.00 | 97 | 1012.1 |
| 20260904081759 | 80 | 225 | 0.0 | 5.0 | 0.00 | 0.00 | 0.00 | 97 | 1012.2 |
| 20260904081255 | 80 | 220 | 3.0 | 8.0 | 0.00 | 0.00 | 0.00 | 97 | 1012.1 |
| 20260904080750 | 80 | 221 | 4.0 | 8.0 | 0.00 | 0.00 | 0.00 | 98 | 1012.0 |
| 20260904080246 | 80 | 227 | 5.0 | 10.0 | 0.00 | 0.00 | 0.00 | 98 | 1012.2 |
| 20260904075742 | 80 | 206 | 3.0 | 7.0 | 0.00 | 0.00 | 0.00 | 98 | 1012.1 |
| 20260904075236 | 80 | 208 | 6.0 | 10.0 | 0.00 | 0.00 | 0.00 | 98 | 1012.2 |
| 20260904074730 | 80 | 206 | 3.0 | 6.0 | 0.00 | 0.00 | 0.00 | 98 | 1012.4 |
| 20260904074224 | 80 | 210 | 2.0 | 5.0 | 0.00 | 0.00 | 0.00 | 98 | 1012.5 |
| 20260904073720 | 80 | 212 | 5.0 | 7.0 | 0.00 | 0.00 | 0.00 | 98 | 1012.4 |
| 20260904073216 | 80 | 221 | 0.0 | 6.0 | 0.00 | 0.00 | 0.00 | 99 | 1012.4 |
| 20260904072711 | 80 | 162 | 3.0 | 8.0 | 0.00 | 0.00 | 0.00 | 98 | 1012.7 |
| 20260904072206 | 80 | 213 | 4.0 | 5.0 | 0.00 | 0.00 | 0.00 | 98 | 1012.6 |
| 20260904071702 | 80 | 226 | 5.0 | 6.0 | 0.00 | 0.00 | 0.00 | 98 | 1012.7 |
| 20260904071157 | 80 | 228 | 2.0 | 3.0 | 0.00 | 0.00 | 0.00 | 98 | 1012.9 |
| 20260904070656 | 80 | 249 | 0.0 | 3.0 | 0.00 | 0.00 | 0.00 | 97 | 1013.0 |
| 20260904070155 | 80 | 162 | 1.0 | 2.0 | 0.00 | 0.00 | 0.00 | 97 | 1013.0 |
| 20260904065650 | 80 | 151 | 0.0 | 2.0 | 0.00 | 0.00 | 0.00 | 97 | 1013.1 |
| 20260904065148 | 80 | 60 | 3.0 | 3.0 | 0.00 | 0.00 | 0.00 | 96 | 1013.0 |
| 20260904064647 | 80 | 162 | 0.0 | 0.0 | 0.00 | 0.00 | 0.00 | 96 | 1012.9 |
| 20260904064143 | 80 | 140 | 0.0 | 2.0 | 0.00 | 0.00 | 0.00 | 96 | 1013.1 |
| 20260904063638 | 80 | 161 | 0.0 | 3.0 | 0.00 | 0.00 | 0.00 | 96 | 1012.7 |
| 20260904063133 | 81 | 126 | 1.0 | 4.0 | 0.00 | 0.00 | 0.00 | 96 | 1013.1 |
| 20260904062630 | 81 | 151 | 0.0 | 2.0 | 0.00 | 0.00 | 0.00 | 96 | 1013.2 |
| 20260904062125 | 81 | 168 | 0.0 | 4.0 | 0.00 | 0.00 | 0.00 | 96 | 1012.9 |
| 20260904061615 | 81 | 151 | 1.0 | 3.0 | 0.00 | 0.00 | 0.00 | 96 | 1013.1 |
| 20260904061112 | 81 | 126 | 1.0 | 2.0 | 0.00 | 0.00 | 0.00 | 96 | 1013.0 |
| 20260904060608 | 81 | 111 | 3.0 | 3.0 | 0.00 | 0.00 | 0.00 | 96 | 1013.0 |
| 20260904060104 | 81 | 145 | 0.0 | 3.0 | 0.00 | 0.00 | 0.00 | 95 | 1013.1 |
| 20260904055604 | 81 | 175 | 3.0 | 4.0 | 0.00 | 0.00 | 0.00 | 95 | 1012.9 |
| 20260904055059 | 81 | 90 | 0.0 | 3.0 | 0.00 | 0.00 | 0.00 | 95 | 1013.0 |
| 20260904054555 | 81 | 107 | 2.0 | 5.0 | 0.00 | 0.00 | 0.00 | 95 | 1012.9 |
| 20260904054051 | 81 | 213 | 2.0 | 3.0 | 0.00 | 0.00 | 0.00 | 95 | 1012.9 |
| 20260904053550 | 81 | 176 | 2.0 | 3.0 | 0.00 | 0.00 | 0.00 | 95 | 1012.7 |
| 20260904053046 | 81 | 156 | 2.0 | 3.0 | 0.00 | 0.00 | 0.00 | 95 | 1012.7 |
| 20260904052542 | 81 | 152 | 3.0 | 4.0 | 0.00 | 0.00 | 0.00 | 95 | 1012.5 |
| 20260904052038 | 81 | 154 | 0.0 | 4.0 | 0.00 | 0.00 | 0.00 | 95 | 1012.7 |
| 20260904051534 | 81 | 200 | 1.0 | 5.0 | 0.00 | 0.00 | 0.00 | 95 | 1012.5 |
| 20260904051033 | 81 | 114 | 1.0 | 3.0 | 0.00 | 0.00 | 0.00 | 94 | 1012.6 |
| 20260904050529 | 81 | 254 | 0.0 | 4.0 | 0.00 | 0.00 | 0.00 | 94 | 1012.5 |
| 20260904050025 | 81 | 210 | 3.0 | 5.0 | 0.00 | 0.00 | 0.00 | 94 | 1012.6 |
| 20260904045520 | 81 | 148 | 2.0 | 3.0 | 0.00 | 0.00 | 0.00 | 94 | 1012.6 |
| 20260904045015 | 81 | 188 | 0.0 | 3.0 | 0.00 | 0.00 | 0.00 | 94 | 1012.5 |
| 20260904044511 | 81 | 161 | 3.0 | 5.0 | 0.00 | 0.00 | 0.00 | 94 | 1012.4 |
| 20260904044007 | 81 | 185 | 0.0 | 5.0 | 0.00 | 0.00 | 0.00 | 93 | 1012.4 |
| 20260904043503 | 81 | 135 | 2.0 | 3.0 | 0.00 | 0.00 | 0.00 | 93 | 1012.7 |
| 20260904042958 | 81 | 114 | 3.0 | 5.0 | 0.00 | 0.00 | 0.00 | 93 | 1012.4 |
| 20260904042455 | 81 | 162 | 4.0 | 7.0 | 0.00 | 0.00 | 0.00 | 93 | 1012.5 |
| 20260904041949 | 81 | 153 | 7.0 | 10.0 | 0.00 | 0.00 | 0.00 | 93 | 1012.6 |
| 20260904041445 | 81 | 166 | 2.0 | 7.0 | 0.00 | 0.00 | 0.00 | 93 | 1012.6 |
| 20260904040936 | 81 | 106 | 0.0 | 5.0 | 0.00 | 0.00 | 0.00 | 93 | 1012.4 |
| 20260904040435 | 81 | 173 | 1.0 | 5.0 | 0.00 | 0.00 | 0.00 | 93 | 1012.4 |
| 20260904035932 | 81 | 55 | 3.0 | 3.0 | 0.00 | 0.00 | 0.00 | 93 | 1012.4 |
| 20260904035427 | 81 | 151 | 0.0 | 6.0 | 0.00 | 0.00 | 0.00 | 93 | 1012.6 |
| 20260904034926 | 82 | 175 | 2.0 | 3.0 | 0.00 | 0.00 | 0.00 | 92 | 1012.4 |
| 20260904034421 | 82 | 195 | 0.0 | 5.0 | 0.00 | 0.00 | 0.00 | 92 | 1012.6 |
| 20260904033917 | 82 | 205 | 3.0 | 6.0 | 0.00 | 0.00 | 0.00 | 92 | 1012.7 |
| 20260904033408 | 82 | 187 | 2.0 | 7.0 | 0.00 | 0.00 | 0.00 | 92 | 1012.4 |
| 20260904032904 | 82 | 167 | 3.0 | 6.0 | 0.00 | 0.00 | 0.00 | 92 | 1012.5 |
| 20260904032358 | 82 | 212 | 2.0 | 5.0 | 0.00 | 0.00 | 0.00 | 92 | 1012.4 |
| 20260904031853 | 82 | 140 | 0.0 | 5.0 | 0.00 | 0.00 | 0.00 | 91 | 1012.5 |
| 20260904031348 | 82 | 121 | 2.0 | 5.0 | 0.00 | 0.00 | 0.00 | 91 | 1012.5 |
| 20260904030844 | 81 | 172 | 2.0 | 5.0 | 0.00 | 0.00 | 0.00 | 91 | 1012.3 |
| 20260904030340 | 81 | 150 | 0.0 | 6.0 | 0.00 | 0.00 | 0.00 | 91 | 1012.6 |
| 20260904025835 | 82 | 26 | 1.0 | 7.0 | 0.00 | 0.00 | 0.00 | 90 | 1012.4 |
| 20260904025331 | 81 | 152 | 3.0 | 5.0 | 0.00 | 0.00 | 0.00 | 90 | 1012.3 |
| 20260904024830 | 81 | 112 | 2.0 | 4.0 | 0.00 | 0.00 | 0.00 | 90 | 1012.2 |
| 20260904024325 | 81 | 187 | 0.0 | 4.0 | 0.00 | 0.00 | 0.00 | 90 | 1012.2 |
| 20260904023822 | 81 | 156 | 4.0 | 6.0 | 0.00 | 0.00 | 0.00 | 90 | 1012.1 |
| 20260904023318 | 81 | 138 | 3.0 | 4.0 | 0.00 | 0.00 | 0.00 | 90 | 1011.9 |
| 20260904022817 | 81 | 112 | 0.0 | 5.0 | 0.00 | 0.00 | 0.00 | 90 | 1012.0 |
| 20260904022314 | 81 | 125 | 0.0 | 4.0 | 0.00 | 0.00 | 0.00 | 89 | 1012.1 |
| 20260904021811 | 81 | 206 | 0.0 | 7.0 | 0.00 | 0.00 | 0.00 | 89 | 1011.9 |
| 20260904021310 | 81 | 240 | 0.0 | 5.0 | 0.00 | 0.00 | 0.00 | 89 | 1012.0 |
| 20260904020806 | 81 | 159 | 0.0 | 4.0 | 0.00 | 0.00 | 0.00 | 89 | 1011.8 |
| 20260904020301 | 81 | 124 | 0.0 | 5.0 | 0.00 | 0.00 | 0.00 | 89 | 1011.8 |
| 20260904015759 | 81 | 108 | 2.0 | 6.0 | 0.00 | 0.00 | 0.00 | 88 | 1011.7 |
| 20260904015254 | 82 | 135 | 3.0 | 7.0 | 0.00 | 0.00 | 0.00 | 88 | 1011.4 |
| 20260904014753 | 82 | 94 | 3.0 | 5.0 | 0.00 | 0.00 | 0.00 | 88 | 1011.5 |
| 20260904014248 | 82 | 121 | 4.0 | 6.0 | 0.00 | 0.00 | 0.00 | 88 | 1011.5 |
| 20260904013744 | 82 | 199 | 4.0 | 6.0 | 0.00 | 0.00 | 0.00 | 88 | 1011.5 |
| 20260904013240 | 82 | 0 | 0.0 | 4.0 | 0.00 | 0.00 | 0.00 | 88 | 1011.5 |
| 20260904012736 | 82 | 208 | 3.0 | 8.0 | 0.00 | 0.00 | 0.00 | 88 | 1011.4 |
| 20260904012235 | 82 | 180 | 0.0 | 5.0 | 0.00 | 0.00 | 0.00 | 88 | 1011.3 |
| 20260904011735 | 82 | 177 | 5.0 | 5.0 | 0.00 | 0.00 | 0.00 | 87 | 1011.3 |
| 20260904011230 | 82 | 100 | 2.0 | 5.0 | 0.00 | 0.00 | 0.00 | 87 | 1011.5 |
| 20260904010725 | 82 | 203 | 3.0 | 6.0 | 0.00 | 0.00 | 0.00 | 88 | 1011.4 |
| 20260904010222 | 82 | 138 | 0.0 | 5.0 | 0.00 | 0.00 | 0.00 | 87 | 1011.2 |
| 20260904005716 | 82 | 221 | 0.0 | 5.0 | 0.00 | 0.00 | 0.00 | 87 | 1011.1 |
| 20260904005213 | 82 | 152 | 4.0 | 5.0 | 0.00 | 0.00 | 0.00 | 87 | 1011.2 |
| 20260904004712 | 82 | 174 | 1.0 | 4.0 | 0.00 | 0.00 | 0.00 | 87 | 1011.3 |
| 20260904004208 | 82 | 220 | 2.0 | 8.0 | 0.00 | 0.00 | 0.00 | 86 | 1011.2 |
| 20260904003702 | 83 | 99 | 2.0 | 7.0 | 0.00 | 0.00 | 0.00 | 86 | 1011.2 |
| 20260904003158 | 83 | 132 | 4.0 | 7.0 | 0.00 | 0.00 | 0.00 | 86 | 1011.1 |
| 20260904002649 | 83 | 116 | 4.0 | 4.0 | 0.00 | 0.00 | 0.00 | 86 | 1011.3 |
| 20260904002144 | 83 | 163 | 0.0 | 4.0 | 0.00 | 0.00 | 0.00 | 86 | 1011.4 |
| 20260904001639 | 83 | 90 | 1.0 | 7.0 | 0.00 | 0.00 | 0.00 | 85 | 1011.2 |
| 20260904001138 | 84 | 99 | 0.0 | 4.0 | 0.00 | 0.00 | 0.00 | 85 | 1011.3 |
| 20260904000633 | 84 | 115 | 2.0 | 3.0 | 0.00 | 0.00 | 0.00 | 85 | 1011.3 |
| 20260904000129 | 84 | 86 | 3.0 | 5.0 | 0.00 | 0.00 | 0.00 | 84 | 1011.2 |
| 20260903235628 | 84 | 75 | 3.0 | 5.0 | 0.00 | 0.00 | 0.00 | 84 | 1011.1 |
| 20260903235125 | 84 | 98 | 1.0 | 6.0 | 0.00 | 0.00 | 0.00 | 86 | 1011.1 |
| 20260903234619 | 83 | 117 | 2.0 | 5.0 | 0.00 | 0.00 | 0.00 | 86 | 1011.2 |
| 20260903234115 | 83 | 56 | 5.0 | 5.0 | 0.00 | 0.00 | 0.00 | 86 | 1011.3 |
| 20260903233611 | 83 | 72 | 5.0 | 5.0 | 0.00 | 0.00 | 0.00 | 86 | 1011.3 |
| 20260903233107 | 83 | 105 | 4.0 | 6.0 | 0.00 | 0.00 | 0.00 | 86 | 1011.4 |
| 20260903232601 | 83 | 115 | 2.0 | 5.0 | 0.00 | 0.00 | 0.00 | 87 | 1011.5 |
| 20260903232057 | 83 | 157 | 0.0 | 5.0 | 0.00 | 0.00 | 0.00 | 87 | 1011.4 |
| 20260903231551 | 83 | 148 | 2.0 | 4.0 | 0.00 | 0.00 | 0.00 | 87 | 1011.6 |
| 20260903231045 | 83 | 101 | 3.0 | 5.0 | 0.00 | 0.00 | 0.00 | 86 | 1011.5 |
| 20260903230542 | 83 | 113 | 6.0 | 6.0 | 0.00 | 0.00 | 0.00 | 86 | 1011.5 |
| 20260903230040 | 83 | 107 | 2.0 | 8.0 | 0.00 | 0.00 | 0.00 | 86 | 1011.3 |
| 20260903225538 | 83 | 84 | 3.0 | 3.0 | 0.00 | 0.00 | 0.00 | 86 | 1011.5 |
| 20260903225034 | 83 | 106 | 5.0 | 10.0 | 0.00 | 0.00 | 0.00 | 86 | 1011.5 |
| 20260903224530 | 83 | 93 | 4.0 | 7.0 | 0.00 | 0.00 | 0.00 | 86 | 1011.6 |
| 20260903224026 | 83 | 114 | 0.0 | 7.0 | 0.00 | 0.00 | 0.00 | 86 | 1011.5 |
| 20260903223525 | 83 | 90 | 2.0 | 4.0 | 0.00 | 0.00 | 0.00 | 86 | 1011.6 |
| 20260903223024 | 83 | 81 | 4.0 | 6.0 | 0.00 | 0.00 | 0.00 | 85 | 1011.5 |
| 20260903222519 | 83 | 116 | 3.0 | 7.0 | 0.00 | 0.00 | 0.00 | 86 | 1011.6 |